This is the latest recevied weather packets stored in our database for station/object W1HVD. If no packets are shown the sender has not sent any weather packets the latest 10 day(s).
| Time | Temp. | Humidity | Pressure | Rain* | Wind** | Luminosity | Snow |
|---|---|---|---|---|---|---|---|
| 1777672476 | 17.78° C | 29% | 1008.8 hPa | 0 mm | - | 129 W/m² | - |
| 1777672171 | 18.33° C | 29% | 1008.9 hPa | 0 mm | - | 142 W/m² | - |
| 1777671867 | 18.33° C | 29% | 1008.8 hPa | 0 mm | - | 155 W/m² | - |
| 1777671562 | 17.78° C | 31% | 1008.7 hPa | 0 mm | - | 169 W/m² | - |
| 1777671261 | 17.78° C | 28% | 1008.7 hPa | 0 mm | - | 182 W/m² | - |
| 1777670955 | 18.33° C | 30% | 1008.7 hPa | 0 mm | - | 197 W/m² | - |
| 1777670652 | 18.33° C | 29% | 1008.8 hPa | 0 mm | - | 212 W/m² | - |
| 1777670349 | 18.89° C | 30% | 1008.7 hPa | 0 mm | - | 226 W/m² | - |
| 1777670046 | 18.33° C | 30% | 1008.6 hPa | 0 mm | - | 243 W/m² | - |
| 1777669744 | 18.33° C | 30% | 1008.7 hPa | 0 mm | - | 256 W/m² | - |
| 1777669440 | 18.33° C | 29% | 1008.7 hPa | 0 mm | - | 272 W/m² | - |
| 1777669136 | 18.33° C | 32% | 1008.4 hPa | 0 mm | - | 287 W/m² | - |
| 1777668834 | 18.33° C | 30% | 1008.7 hPa | 0 mm | - | 301 W/m² | - |
| 1777668530 | 18.33° C | 31% | 1008.2 hPa | 0 mm | - | 314 W/m² | - |
| 1777668227 | 18.89° C | 30% | 1008.3 hPa | 0 mm | - | 330 W/m² | - |
| 1777667923 | 18.33° C | 35% | 1008.3 hPa | 0 mm | - | 344 W/m² | - |
| 1777667620 | 17.78° C | 32% | 1008.4 hPa | 0 mm | - | 360 W/m² | - |
| 1777667317 | 17.78° C | 32% | 1008.2 hPa | 0 mm | - | 373 W/m² | - |
| 1777667014 | 17.78° C | 32% | 1008.6 hPa | 0 mm | - | 359 W/m² | - |
| 1777666711 | 17.78° C | 33% | 1008.6 hPa | 0 mm | - | 405 W/m² | - |
| 1777666408 | 17.78° C | 32% | 1008.4 hPa | 0 mm | - | 417 W/m² | - |
| 1777666104 | 18.33° C | 36% | 1008.4 hPa | 0 mm | - | 435 W/m² | - |
| 1777665802 | 18.33° C | 34% | 1008.7 hPa | 0 mm | - | 453 W/m² | - |
| 1777665500 | 18.33° C | 33% | 1008.7 hPa | 0 mm | - | 464 W/m² | - |
| 1777665195 | 18.33° C | 35% | 1008.2 hPa | 0 mm | - | 483 W/m² | - |
* Rain latest hour (hover to see other rain measurements)
** Current wind speed in m/s (hover to see current wind gust speed)